Weather History for St. Francis, KS

Change the Weather History Date:

Friday, May 11, 2012

  Actual Average Record
Temperature  
Mean Temperature 54 °F -  
Max Temperature 64 °F 74 °F 68 °F (2013)
Min Temperature 42 °F 45 °F 38 °F (2014)
Degree Days  
Heating Degree Days 11    
Growing Degree Days 4 (Base 50)    
Moisture  
Dew Point 33 °F    
Average Humidity 46    
Maximum Humidity 64    
Minimum Humidity 28    
Precipitation  
Precipitation 0.00 in - - ()
Sea Level Pressure  
Sea Level Pressure 30.15 in    
Wind  
Wind Speed 14 mph ()    
Max Wind Speed 24 mph    
Max Gust Speed 31 mph    
Visibility 10.0 miles    
Events      
Averages and records for this station are not official NWS values.
T = Trace of Precipitation, MM = Missing Value Source: Averaged Metar Reports

Daily Weather History Graph

Daily Weather History Graph

Search for Another Location

Airport:

Trip Planner

Search our weather history database for the weather conditions in past years. The results will help you decide how hot, cold, wet, or windy it might be!

Date:

Astronomy

May. 11, 2012 Rise Set
Actual Time 6:35 AM CDT 8:51 PM CDT
Civil Twilight 6:05 AM CDT 9:22 PM CDT
Nautical Twilight 5:28 AM CDT 9:59 PM CDT
Astronomical Twilight 4:47 AM CDT 10:40 PM CDT
Moon 1:32 AM CDT (5/11) 12:10 PM CDT (5/11)
Length of Visible Light 15h 16m
Length of Day
14h 15m
Waning Gibbous, 63% of the Moon is Illuminated
May 11
Waning Gibbous
May 12
Last Quarter
May 20
New
May 28
First Quarter
Jun 4
Full

Hourly Weather History & Observations

Time (CDT) Temp. Windchill Dew Point Humidity Pressure Visibility Wind Dir Wind Speed Gust Speed Precip Events Conditions
12:15 AM 65.8 °F - 38.5 °F 37% 29.81 in 10.0 mi South 17.3 mph - N/A   Clear
12:35 AM 65.3 °F - 38.7 °F 38% 29.81 in 10.0 mi South 18.4 mph 26.5 mph N/A   Clear
12:55 AM 64.6 °F - 39.0 °F 39% 29.82 in 10.0 mi South 19.6 mph 24.2 mph N/A   Clear
1:15 AM 63.7 °F - 39.2 °F 41% 29.83 in 10.0 mi South 16.1 mph - N/A   Clear
1:35 AM 62.8 °F - 39.6 °F 42% 29.83 in 10.0 mi South 16.1 mph - N/A   Clear
1:55 AM 61.9 °F - 39.7 °F 44% 29.83 in 10.0 mi South 15.0 mph - N/A   Clear
2:15 AM 61.0 °F - 40.1 °F 46% 29.85 in 10.0 mi SSW 11.5 mph - N/A   Clear
2:35 AM 60.8 °F - 40.6 °F 47% 29.91 in 10.0 mi Calm Calm - N/A   Clear
2:55 AM 61.2 °F - 41.2 °F 48% 29.92 in 10.0 mi Calm Calm - N/A   Clear
3:15 AM 58.5 °F - 41.9 °F 54% 29.93 in 10.0 mi North 5.8 mph - N/A   Clear
3:35 AM 57.0 °F - 42.8 °F 59% 29.91 in 10.0 mi SE 8.1 mph - N/A   Clear
3:55 AM 57.7 °F - 41.9 °F 56% 29.93 in 10.0 mi Calm Calm - N/A   Clear
4:15 AM 53.8 °F - 40.6 °F 61% 29.96 in 10.0 mi NNE 21.9 mph 28.8 mph N/A   Clear
4:35 AM 52.7 °F - 40.5 °F 63% 29.98 in 10.0 mi NNE 19.6 mph 23.0 mph N/A   Clear
4:55 AM 51.8 °F - 39.9 °F 64% 30.00 in 10.0 mi NNE 21.9 mph 26.5 mph N/A   Clear
5:15 AM 51.1 °F - 39.2 °F 64% 30.02 in 10.0 mi NNE 18.4 mph 25.3 mph N/A   Clear
5:35 AM 50.9 °F - 38.5 °F 62% 30.03 in 10.0 mi NNE 19.6 mph 26.5 mph N/A   Clear
5:55 AM 50.0 °F - 37.8 °F 63% 30.04 in 10.0 mi NNE 18.4 mph 27.6 mph N/A   Clear
6:15 AM 49.5 °F - 37.2 °F 63% 30.06 in 10.0 mi North 16.1 mph 26.5 mph N/A   Clear
6:35 AM 48.6 °F - 36.1 °F 62% 30.08 in 10.0 mi North 16.1 mph 25.3 mph N/A   Clear
6:55 AM 48.2 °F - 35.6 °F 62% 30.09 in 10.0 mi North 16.1 mph 20.7 mph N/A   Clear
7:15 AM 47.7 °F - 35.4 °F 63% 30.10 in 10.0 mi North 15.0 mph - N/A   Clear
7:35 AM 47.5 °F - 35.6 °F 63% 30.12 in 10.0 mi NNE 12.7 mph - N/A   Clear
7:55 AM 48.6 °F - 35.4 °F 60% 30.13 in 10.0 mi NNE 15.0 mph 20.7 mph N/A   Clear
8:15 AM 49.5 °F - 33.4 °F 54% 30.15 in 10.0 mi NNE 20.7 mph 29.9 mph N/A   Clear
8:55 AM 50.7 °F - 32.0 °F 49% 30.17 in 10.0 mi NNE 20.7 mph 28.8 mph N/A   Clear
9:15 AM 51.8 °F - 31.1 °F 45% 30.17 in 10.0 mi NNE 24.2 mph 28.8 mph N/A   Mostly Cloudy
9:35 AM 51.6 °F - 31.3 °F 46% 30.18 in 10.0 mi NNE 24.2 mph 29.9 mph N/A   Overcast
9:55 AM 53.8 °F - 31.3 °F 42% 30.19 in 10.0 mi NNE 23.0 mph 29.9 mph N/A   Overcast
10:15 AM 53.4 °F - 30.7 °F 42% 30.19 in 10.0 mi NNE 21.9 mph 31.1 mph N/A   Mostly Cloudy
10:35 AM 55.8 °F - 32.4 °F 41% 30.19 in 10.0 mi NNE 19.6 mph 26.5 mph N/A   Overcast
10:55 AM 54.0 °F - 31.5 °F 42% 30.20 in 10.0 mi North 18.4 mph 21.9 mph N/A   Overcast
11:15 AM 54.9 °F - 30.6 °F 40% 30.22 in 10.0 mi NNE 18.4 mph 23.0 mph N/A   Overcast
11:35 AM 54.7 °F - 27.0 °F 34% 30.23 in 10.0 mi NNE 19.6 mph 25.3 mph N/A   Overcast
11:55 AM 55.6 °F - 25.2 °F 31% 30.24 in 10.0 mi NNE 17.3 mph 29.9 mph N/A   Overcast
12:15 PM 55.6 °F - 25.2 °F 31% 30.25 in 10.0 mi NNE 17.3 mph 25.3 mph N/A   Overcast
12:55 PM 55.4 °F - 27.7 °F 35% 30.26 in 10.0 mi North 16.1 mph 20.7 mph N/A   Overcast
1:15 PM 56.8 °F - 28.8 °F 34% 30.25 in 10.0 mi NNE 15.0 mph 23.0 mph N/A   Overcast
1:35 PM 57.6 °F - 30.0 °F 35% 30.25 in 10.0 mi North 13.8 mph 20.7 mph N/A   Mostly Cloudy
1:55 PM 60.6 °F - 30.4 °F 32% 30.25 in 10.0 mi NNE 13.8 mph 23.0 mph N/A   Mostly Cloudy
2:15 PM 59.4 °F - 30.2 °F 33% 30.24 in 10.0 mi NNE 13.8 mph 19.6 mph N/A   Scattered Clouds
2:35 PM 61.0 °F - 30.6 °F 32% 30.24 in 10.0 mi NNE 15.0 mph 21.9 mph N/A   Clear
2:55 PM 60.6 °F - 30.7 °F 32% 30.24 in 10.0 mi NE 16.1 mph 20.7 mph N/A   Clear
3:15 PM 60.8 °F - 29.8 °F 31% 30.23 in 10.0 mi NE 16.1 mph 23.0 mph N/A   Scattered Clouds
3:35 PM 61.7 °F - 30.0 °F 30% 30.23 in 10.0 mi NE 15.0 mph 25.3 mph N/A   Clear
3:55 PM 62.1 °F - 30.4 °F 30% 30.23 in 10.0 mi NE 17.3 mph 23.0 mph N/A   Clear
4:15 PM 61.5 °F - 30.0 °F 30% 30.23 in 10.0 mi NNE 10.4 mph 19.6 mph N/A   Clear
4:35 PM 61.7 °F - 29.7 °F 30% 30.23 in 10.0 mi NE 10.4 mph 19.6 mph N/A   Clear
4:55 PM 61.2 °F - 29.5 °F 30% 30.23 in 10.0 mi NNE 10.4 mph 17.3 mph N/A   Scattered Clouds
5:15 PM 61.9 °F - 29.3 °F 29% 30.23 in 10.0 mi NNE 10.4 mph 17.3 mph N/A   Scattered Clouds
5:35 PM 61.7 °F - 28.9 °F 29% 30.23 in 10.0 mi NE 13.8 mph 17.3 mph N/A   Scattered Clouds
5:55 PM 60.8 °F - 27.3 °F 28% 30.24 in 10.0 mi North 11.5 mph 16.1 mph N/A   Scattered Clouds
6:15 PM 58.6 °F - 27.3 °F 30% 30.24 in 10.0 mi North 11.5 mph - N/A   Scattered Clouds
6:35 PM 59.7 °F - 27.3 °F 29% 30.24 in 10.0 mi NNE 10.4 mph - N/A   Scattered Clouds
6:55 PM 59.0 °F - 25.9 °F 28% 30.24 in 10.0 mi NNE 5.8 mph - N/A   Scattered Clouds
7:15 PM 56.5 °F - 26.1 °F 31% 30.24 in 10.0 mi NNE 10.4 mph - N/A   Scattered Clouds
7:35 PM 55.6 °F - 28.6 °F 36% 30.25 in 10.0 mi NNE 13.8 mph - N/A   Scattered Clouds
7:55 PM 54.1 °F - 29.5 °F 39% 30.25 in 10.0 mi North 19.6 mph 23.0 mph N/A   Clear
8:15 PM 50.4 °F - 30.0 °F 46% 30.26 in 10.0 mi North 19.6 mph 24.2 mph N/A   Clear
8:35 PM 48.2 °F - 30.2 °F 50% 30.28 in 10.0 mi North 12.7 mph 21.9 mph N/A   Clear
8:55 PM 46.8 °F - 30.2 °F 53% 30.28 in 10.0 mi North 11.5 mph 19.6 mph N/A   Scattered Clouds
9:15 PM 44.6 °F 38.4 °F 32.0 °F 61% 30.29 in 10.0 mi North 12.7 mph - N/A   Scattered Clouds
9:35 PM 43.9 °F 37.9 °F 31.3 °F 61% 30.30 in 10.0 mi North 11.5 mph - N/A   Clear
9:55 PM 43.5 °F 37.9 °F 30.9 °F 61% 30.31 in 10.0 mi NNE 10.4 mph - N/A   Clear
10:15 PM 43.7 °F 38.1 °F 31.1 °F 61% 30.31 in 10.0 mi NNE 10.4 mph - N/A   Mostly Cloudy
10:35 PM 43.7 °F 37.7 °F 31.5 °F 62% 30.31 in 10.0 mi North 11.5 mph - N/A   Overcast
10:55 PM 44.1 °F 39.0 °F 31.1 °F 60% 30.33 in 10.0 mi North 9.2 mph - N/A   Scattered Clouds
11:15 PM 43.9 °F 37.9 °F 30.7 °F 60% 30.34 in 10.0 mi NNE 11.5 mph - N/A   Clear
11:35 PM 43.3 °F 38.6 °F 30.9 °F 62% 30.34 in 10.0 mi North 8.1 mph - N/A   Scattered Clouds
11:55 PM 42.8 °F 38.6 °F 31.1 °F 63% 30.34 in 10.0 mi North 6.9 mph - N/A   Mostly Cloudy